TimeEDT,TemperatureF,Dew PointF,Humidity,Sea Level PressureIn,VisibilityMPH,Wind Direction,Wind SpeedMPH,Gust SpeedMPH,PrecipitationIn,Events,Conditions,WindDirDegrees,DateUTC
12:14 AM,60.8,52.3,74,30.06,10.0,South,4.6,-,N/A,,Overcast,190,2012-10-04 04:14:00
12:35 AM,60.8,52.2,73,30.06,10.0,South,4.6,-,N/A,,Overcast,190,2012-10-04 04:35:00
12:55 AM,60.1,51.8,74,30.06,10.0,South,4.6,-,N/A,,Overcast,190,2012-10-04 04:55:00
1:14 AM,58.8,51.8,77,30.06,10.0,South,4.6,-,N/A,,Mostly Cloudy,190,2012-10-04 05:14:00
1:35 AM,58.8,51.8,77,30.06,10.0,SSW,3.5,-,N/A,,Overcast,200,2012-10-04 05:35:00
1:55 AM,58.1,51.4,78,30.06,10.0,SSW,3.5,-,N/A,,Overcast,200,2012-10-04 05:55:00
2:14 AM,57.4,51.3,80,30.06,10.0,SSW,4.6,-,N/A,,Scattered Clouds,200,2012-10-04 06:14:00
2:35 AM,58.1,51.3,78,30.06,10.0,SSW,6.9,-,N/A,,Mostly Cloudy,200,2012-10-04 06:35:00
2:54 AM,58.5,51.4,77,30.06,10.0,SSW,5.8,-,N/A,,Overcast,210,2012-10-04 06:54:00
3:15 AM,58.3,51.4,78,30.06,10.0,SSW,3.5,-,N/A,,Overcast,200,2012-10-04 07:15:00
3:35 AM,58.5,51.4,77,30.06,10.0,SSW,3.5,-,N/A,,Overcast,200,2012-10-04 07:35:00
3:54 AM,57.7,51.4,79,30.06,10.0,SSW,4.6,-,N/A,,Overcast,210,2012-10-04 07:54:00
4:15 AM,55.9,51.1,84,30.06,10.0,SW,4.6,-,N/A,,Scattered Clouds,220,2012-10-04 08:15:00
4:35 AM,55.4,50.9,85,30.06,10.0,SSW,4.6,-,N/A,,Clear,210,2012-10-04 08:35:00
4:54 AM,54.7,50.9,87,30.06,10.0,SSW,4.6,-,N/A,,Clear,210,2012-10-04 08:54:00
5:15 AM,54.5,50.7,87,30.06,10.0,SW,5.8,-,N/A,,Clear,220,2012-10-04 09:15:00
5:35 AM,54.5,50.9,88,30.07,10.0,SW,5.8,-,N/A,,Clear,220,2012-10-04 09:35:00
5:54 AM,54.9,50.9,86,30.07,10.0,SSW,5.8,-,N/A,,Clear,210,2012-10-04 09:54:00
6:15 AM,54.5,50.9,88,30.07,10.0,SW,5.8,-,N/A,,Clear,220,2012-10-04 10:15:00
6:35 AM,54.5,50.9,88,30.08,10.0,SW,4.6,-,N/A,,Clear,220,2012-10-04 10:35:00
6:55 AM,54.3,50.9,88,30.08,10.0,SW,5.8,-,N/A,,Clear,220,2012-10-04 10:55:00
7:15 AM,54.5,51.1,88,30.08,10.0,SW,4.6,-,N/A,,Mostly Cloudy,220,2012-10-04 11:15:00
7:35 AM,54.0,51.1,90,30.08,10.0,SW,4.6,-,N/A,,Overcast,220,2012-10-04 11:35:00
7:55 AM,55.0,51.8,89,30.09,10.0,SW,5.8,-,N/A,,Overcast,230,2012-10-04 11:55:00
8:15 AM,55.8,52.0,87,30.09,10.0,SW,6.9,-,N/A,,Overcast,230,2012-10-04 12:15:00
8:34 AM,56.1,52.3,87,30.08,10.0,SW,6.9,-,N/A,,Overcast,220,2012-10-04 12:34:00
8:55 AM,57.0,52.9,86,30.09,10.0,SW,5.8,-,N/A,,Overcast,220,2012-10-04 12:55:00
9:15 AM,57.4,52.9,85,30.09,10.0,SW,5.8,-,N/A,,Mostly Cloudy,220,2012-10-04 13:15:00
9:34 AM,60.1,53.8,80,30.09,10.0,SSW,5.8,-,N/A,,Overcast,210,2012-10-04 13:34:00
9:55 AM,61.9,54.0,75,30.09,10.0,SW,9.2,-,N/A,,Overcast,230,2012-10-04 13:55:00
10:15 AM,62.6,54.0,73,30.10,10.0,SW,8.1,-,N/A,,Scattered Clouds,230,2012-10-04 14:15:00
10:34 AM,64.6,53.8,68,30.10,10.0,SW,6.9,-,N/A,,Clear,220,2012-10-04 14:34:00
10:55 AM,65.7,53.1,64,30.10,10.0,SW,8.1,-,N/A,,Clear,220,2012-10-04 14:55:00
11:15 AM,66.6,53.1,62,30.11,10.0,SW,12.7,-,N/A,,Mostly Cloudy,220,2012-10-04 15:15:00
11:34 AM,67.5,52.2,58,30.11,10.0,SW,13.8,18.4,N/A,,Mostly Cloudy,220,2012-10-04 15:34:00
11:55 AM,68.4,52.7,57,30.11,10.0,SW,13.8,19.6,N/A,,Scattered Clouds,230,2012-10-04 15:55:00
12:15 PM,68.7,53.6,58,30.10,10.0,WSW,12.7,20.7,N/A,,Clear,240,2012-10-04 16:15:00
12:34 PM,69.3,54.3,59,30.10,10.0,WSW,11.5,23.0,N/A,,Clear,240,2012-10-04 16:34:00
12:55 PM,70.0,54.3,57,30.09,10.0,SW,9.2,17.3,N/A,,Clear,230,2012-10-04 16:55:00
1:15 PM,70.9,54.7,56,30.08,10.0,SW,12.7,23.0,N/A,,Clear,220,2012-10-04 17:15:00
1:35 PM,72.5,54.7,53,30.08,10.0,WSW,12.7,-,N/A,,Clear,240,2012-10-04 17:35:00
1:55 PM,72.5,53.1,50,30.07,10.0,SW,10.4,18.4,N/A,,Clear,220,2012-10-04 17:55:00
2:14 PM,73.0,52.9,49,30.06,10.0,SW,16.1,19.6,N/A,,Clear,230,2012-10-04 18:14:00
2:35 PM,73.6,52.9,48,30.06,10.0,SW,16.1,21.9,N/A,,Clear,220,2012-10-04 18:35:00
2:55 PM,73.9,51.4,45,30.05,10.0,SW,12.7,21.9,N/A,,Clear,220,2012-10-04 18:55:00
3:14 PM,74.5,51.4,44,30.04,10.0,SW,13.8,17.3,N/A,,Scattered Clouds,230,2012-10-04 19:14:00
3:35 PM,74.7,51.3,44,30.04,10.0,SW,19.6,26.5,N/A,,Scattered Clouds,220,2012-10-04 19:35:00
3:55 PM,74.5,50.5,43,30.04,10.0,SW,13.8,25.3,N/A,,Scattered Clouds,220,2012-10-04 19:55:00
4:14 PM,74.7,50.0,42,30.04,10.0,WSW,16.1,19.6,N/A,,Scattered Clouds,250,2012-10-04 20:14:00
4:35 PM,73.9,49.5,42,30.04,10.0,SW,13.8,21.9,N/A,,Scattered Clouds,220,2012-10-04 20:35:00
4:55 PM,75.0,49.5,40,30.04,10.0,SW,15.0,21.9,N/A,,Mostly Cloudy,230,2012-10-04 20:55:00
5:14 PM,74.3,50.0,42,30.03,10.0,SW,11.5,17.3,N/A,,Scattered Clouds,230,2012-10-04 21:14:00
5:35 PM,74.3,51.3,44,30.03,10.0,SW,10.4,16.1,N/A,,Scattered Clouds,220,2012-10-04 21:35:00
5:55 PM,74.3,51.1,44,30.03,10.0,SW,11.5,16.1,N/A,,Scattered Clouds,220,2012-10-04 21:55:00
6:14 PM,73.8,51.1,45,30.01,10.0,SSW,9.2,-,N/A,,Clear,210,2012-10-04 22:14:00
6:35 PM,72.5,51.4,47,30.01,10.0,SSW,9.2,-,N/A,,Clear,210,2012-10-04 22:35:00
6:55 PM,72.0,51.1,48,30.01,10.0,SSW,5.8,-,N/A,,Clear,210,2012-10-04 22:55:00
7:15 PM,71.8,51.1,48,30.01,10.0,South,5.8,-,N/A,,Clear,190,2012-10-04 23:15:00
7:35 PM,70.9,51.4,50,30.01,10.0,South,5.8,-,N/A,,Clear,190,2012-10-04 23:35:00
7:54 PM,71.1,51.8,50,30.01,10.0,SSW,4.6,-,N/A,,Scattered Clouds,200,2012-10-04 23:54:00
8:15 PM,71.1,52.0,51,30.01,10.0,South,4.6,-,N/A,,Mostly Cloudy,190,2012-10-05 00:15:00
8:35 PM,70.9,52.3,52,30.00,10.0,South,6.9,-,N/A,,Overcast,190,2012-10-05 00:35:00
8:54 PM,70.9,52.7,53,30.00,10.0,SSW,5.8,-,N/A,,Overcast,200,2012-10-05 00:54:00
10:15 PM,63.7,58.5,83,30.05,7.0,West,13.8,21.9,N/A,Rain,Heavy Rain,270,2012-10-05 02:15:00
10:35 PM,61.5,59.0,91,30.05,10.0,West,10.4,-,N/A,Rain,Light Rain,260,2012-10-05 02:35:00
10:54 PM,61.3,58.6,91,30.05,10.0,WSW,8.1,-,N/A,,Overcast,240,2012-10-05 02:54:00
11:15 PM,61.2,58.6,91,30.06,10.0,WSW,6.9,-,N/A,,Overcast,250,2012-10-05 03:15:00
11:35 PM,61.0,58.5,91,30.06,10.0,WSW,9.2,-,N/A,,Overcast,250,2012-10-05 03:35:00
11:55 PM,60.8,58.3,91,30.06,7.0,WSW,11.5,17.3,N/A,Rain,Light Rain,240,2012-10-05 03:55:00